Dewpoint
67 67 68 69 69 69 68 68 68 68 68 68 68 67 66 67 67 67 67 66 65 64 64 64 64 63 63 62 62 62 59 61
67 68 66 67 68 68 68 67 68 68 68 68 67 66 66 67 67 67 66 64 62 62 61 60 60 59 60 60 61 60 55 56
67 67 67 67 67 68 67 67 68 67 67 67 66 62 64 65 64 66 65 63 62 61 60 59 57 55 55 57 59 53 52 50
67 67 67 67 66 67 67 66 66 66 66 66 65 64 63 63 65 66 65 63 62 61 59 57 55 53 51 51 50 53 53 53
66 67 67 67 66 67 66 66 66 67 67 67 66 64 65 63 64 64 64 64 60 60 59 56 56 55 55 55 54 52 52 54
65 66 67 67 67 66 66 66 66 66 66 67 66 65 65 64 64 64 64 62 61 60 58 59 59 59 59 59 56 55 53 56
64 65 66 66 67 66 66 66 66 66 66 66 66 65 65 64 64 65 63 63 61 60 60 60 60 61 61 61 60 60 58 57
63 65 66 66 66 66 66 66 66 66 66 66 66 65 65 64 64 64 64 64 63 62 62 62 62 62 62 63 63 63 62 61
62 64 65 65 65 66 66 66 66 66 66 66 66 66 65 64 63 64 63 65 64 64 64 64 63 63 63 64 64 65 64 64
63 63 64 65 65 65 65 65 66 65 65 66 66 66 65 64 63 63 64 64 64 65 64 64 64 64 64 64 64 64 64 64
64 65 64 64 65 65 65 65 65 65 66 66 66 66 65 64 63 63 64 64 64 65 65 65 64 64 64 64 63 63 63 62
65 66 65 65 64 64 64 64 64 64 64 64 65 65 65 65 64 64 64 64 64 65 65 65 64 64 63 62 63 62 61 59
63 65 66 65 64 63 63 63 63 63 64 64 65 65 65 65 64 64 64 63 64 65 65 64 62 62 60 59 57 53 51 47
60 64 66 66 65 64 63 63 63 63 63 64 64 64 65 65 64 63 63 63 64 65 65 62 59 55 56 51 55 51 39 42
46 58 64 66 65 64 64 64 64 63 63 64 64 64 64 64 64 63 64 64 64 65 64 62 58 51 49 52 47 49 36 39
37 42 59 65 65 64 64 63 62 63 63 63 64 64 64 64 64 64 64 64 65 65 63 61 57 55 46 44 43 39 42 32
42 44 47 61 65 65 64 63 63 63 63 63 64 64 65 65 65 65 65 65 65 64 60 59 58 55 49 44 44 44 44 35
50 55 56 60 65 65 65 64 64 63 64 64 64 64 65 66 66 66 66 65 64 62 60 57 52 51 48 45 42 39 38 37
53 59 60 64 65 65 65 65 65 64 64 64 63 63 63 65 66 65 64 62 60 58 56 53 49 48 46 44 43 42 43 41
46 58 60 64 65 65 65 65 65 65 65 64 63 63 64 65 65 63 61 58 56 54 52 49 47 47 45 45 45 44 43 41
Wind_Speed
21 22 22 23 24 24 24 24 23 22 21 20 19 18 17 16 15 15 14 14 13 12 11 11 10 11 11 11 9 6 5 5
20 19 20 21 21 24 24 23 23 22 21 20 19 18 16 16 15 15 15 14 13 12 10 8 8 7 6 5 4 4 4 5
18 19 18 18 18 20 22 22 22 21 19 19 19 15 16 16 13 15 14 14 13 12 11 9 7 5 4 4 3 1 1 2
19 19 19 17 16 17 18 18 18 18 18 19 16 15 15 15 14 15 13 13 13 11 10 9 8 6 4 4 2 2 2 0
22 21 19 20 19 17 16 16 16 16 18 18 15 14 13 13 12 13 12 12 10 10 9 7 6 5 4 3 3 4 2 1
21 22 22 21 17 19 19 18 17 16 17 18 16 14 14 14 13 13 12 11 10 9 8 7 6 5 4 4 4 4 4 3
23 21 20 20 18 17 18 20 19 18 18 19 17 16 16 14 14 13 12 12 11 10 8 7 6 6 5 5 5 4 4 4
21 22 20 19 18 19 19 19 19 18 17 19 21 18 16 15 14 14 13 12 11 10 9 7 6 5 6 6 5 5 5 4
23 23 21 21 21 19 18 18 18 17 17 18 22 20 18 17 15 14 14 12 11 9 8 6 5 5 6 6 6 5 5 4
21 21 24 24 22 19 18 17 16 16 16 17 22 23 21 18 16 15 13 12 11 10 10 8 7 7 6 5 5 5 5 4
23 23 26 27 23 20 19 18 18 17 17 19 22 22 21 19 17 15 14 13 12 12 10 10 8 8 7 5 5 5 6 6
22 22 23 23 20 19 17 18 19 19 20 20 21 21 22 20 17 16 16 14 14 13 12 10 8 8 6 7 6 7 7 6
24 23 25 22 22 23 22 24 22 21 20 20 22 21 23 22 18 18 17 17 16 15 13 10 7 5 3 4 6 6 6 5
25 27 25 27 24 24 18 21 20 19 19 21 23 24 23 22 21 20 19 17 17 16 15 6 4 7 5 2 4 3 2 3
25 29 28 28 27 20 17 10 10 18 23 23 24 24 24 24 23 20 19 18 18 17 17 15 11 6 6 3 2 7 2 2
19 23 24 24 24 23 29 28 24 23 22 20 20 25 25 23 22 21 21 19 19 17 16 16 13 11 4 5 1 2 4 4
19 20 23 25 27 27 25 26 22 13 16 20 20 20 23 23 23 22 21 19 19 17 17 17 15 12 10 6 4 2 2 6
16 20 23 24 26 28 28 28 23 19 20 22 21 18 21 23 23 22 21 19 19 17 17 17 17 9 10 7 7 5 6 7
10 15 19 22 24 25 28 27 25 24 23 21 21 20 19 22 23 20 19 17 15 15 16 16 15 12 11 9 6 5 4 4
11 15 17 20 23 26 26 25 22 22 23 22 23 23 23 21 21 19 18 16 15 14 12 11 13 13 13 9 7 6 5 4
Wind_Direction
168 170 165 158 158 158 159 159 159 159 160 159 157 157 156 153 151 149 146 144 144 145 150 152 152 150 152 152 153 156 161 154
169 173 176 172 168 164 164 164 164 165 165 164 162 160 160 159 158 158 154 152 149 151 152 153 149 148 144 150 150 159 186 186
172 176 179 181 174 171 167 168 169 169 170 168 163 169 170 169 172 166 163 158 157 157 156 154 147 135 128 136 151 186 245 255
179 180 183 182 179 175 176 177 178 181 181 176 177 176 176 176 173 172 170 167 162 162 161 157 163 166 161 156 182 159 196 258
184 181 183 187 184 179 183 184 183 187 185 181 182 178 176 176 173 177 177 178 176 173 170 180 178 179 173 180 171 190 203 211
185 187 186 190 188 186 186 188 188 189 191 186 182 183 185 183 183 182 182 183 184 184 185 180 181 191 203 207 196 198 191 194
194 191 190 188 190 190 193 192 190 193 190 193 190 189 189 188 189 185 188 184 188 188 190 193 196 203 203 202 205 220 216 224
196 198 196 190 195 197 196 191 190 192 192 194 196 195 192 193 191 191 194 192 191 195 195 198 208 214 212 215 226 237 231 226
199 197 196 200 202 203 199 197 194 195 196 195 197 198 197 196 197 195 199 195 193 196 198 202 214 217 230 229 236 246 249 250
199 196 198 203 206 204 203 200 197 200 199 195 199 200 198 198 201 202 199 195 198 200 201 208 218 222 230 234 238 239 236 244
207 201 206 205 204 205 208 205 205 205 205 206 203 200 197 199 203 202 196 199 203 204 208 214 221 224 230 241 244 244 242 243
214 210 213 205 202 202 208 212 214 214 213 210 200 201 199 200 204 201 197 201 207 206 208 206 222 231 230 243 242 243 249 252
217 212 210 196 201 203 208 214 213 213 218 213 205 200 200 202 205 201 200 205 206 203 203 194 190 198 199 237 250 242 243 243
220 218 211 202 201 207 209 212 220 216 211 217 212 205 199 201 205 205 204 207 207 204 193 164 160 171 176 155 263 240 220 188
224 222 212 207 206 201 202 193 209 203 213 210 210 206 202 201 202 204 203 203 203 198 188 186 175 188 203 169 167 233 318 201
234 227 220 213 202 200 200 203 205 213 212 204 199 207 205 200 199 200 200 200 201 199 183 184 167 184 173 212 182 122 224 290
244 229 218 210 201 203 204 213 218 212 198 195 196 198 201 196 195 198 202 200 201 194 175 181 185 185 171 167 185 181 196 232
223 220 218 206 204 204 205 211 211 205 196 192 194 195 197 191 191 196 199 197 191 189 187 180 183 179 175 168 165 170 197 205
218 214 214 204 204 207 211 214 211 208 200 194 185 187 195 194 186 188 193 187 179 174 179 179 168 170 166 163 172 165 166 199
212 213 216 206 205 212 210 209 210 212 204 199 192 193 197 191 187 184 181 171 169 164 151 147 150 153 149 149 145 146 161 162